User: anonymous
Location: Unspecified
(0.0000°N, 0.0000°E)
Time: 05:35:59
(UTC+00:00)
Language:

OPTUS D2 - Orbit

View from above orbital plane
View from above orbital plane
View from above satellite
View from above satellite

Ground track
Ground track

The orbit data is extracted from the following two-line orbital elements,

1 32252U 07044A   14202.80061716 -.00000202  00000-0  00000+0 0  4682
2 32252 000.0029 248.4823 0002948 246.1867 245.0169 01.00273025 24918
Epoch (UTC): 21 July 2014 19:12:53
Eccentricity: 0.0002948
inclination: 0.0029°
perigee height: 35773 km
apogee height: 35798 km
right ascension of ascending node: 248.4823°
argument of perigee: 246.1867°
revolutions per day: 1.00273025
mean anomaly at epoch: 245.0169°
orbit number at epoch: 2491

The dashed part of the orbit path shows where the satellite is in the earth's shadow,  

DLR